Regional Weather Roundup
Issued by NWS

Home | Current Version | Previous Version | Graphics & Text | Print | Product List | Glossary On
Versions: 1 2 3 4 5 6 7 8 9 10 11 12 13 14 15 16 17 18 19 20 21 22 23 24 25 26 27 28 29 30 31 32 33 34 35 36 37 38 39 40 41 42 43 44 45 46 47 48 49 50
885
ASUS43 KIND 242059
RWRIN

WEATHER ROUNDUP FOR INDIANA
NATIONAL WEATHER SERVICE INDIANAPOLIS IN
500 PM EDT SUN JUL 24 2016

NOTE: "FAIR" INDICATES FEW OR NO CLOUDS BELOW 12,000 FEET WITH NO
SIGNIFICANT WEATHER AND/OR OBSTRUCTIONS TO VISIBILITY.

* - STATION DOES NOT REPORT WEATHER SUCH AS PRECIPITATION OR FOG.

+ - STATION NOT QUALITY CONTROLLED BY THE NATIONAL WEATHER SERVICE.
    USE DATA WITH CAUTION...ESPECIALLY DEWPOINT AND RELATIVE
    HUMIDITY OBSERVATIONS.

INZ001>003-010>013-019-020-242200-
NORTHWEST INDIANA

CITY           SKY/WX    TMP DP  RH WIND       PRES   REMARKS
GARY /AIRPORT/ PTSUNNY   91 N/A N/A S15       29.88S
KNOX *+        CLOUDY    88  66  48 S14       29.90F

$$

LMZ046-743>745-242200-
SOUTHERN LAKE MICHIGAN

STATION/POSITION TIME  TEMP    WIND        PRES    WAVE
                       AIR SEA DIR/SP/G            HT
                 (UTC) (F)     (DEG/KT/KT) (MB)    (FT)
BURNS HARBOR     2000   88     190/ 11/ 21 1011.9F
MICHIGAN CITY    2000   87     170/ 17/ 20   N/A
5NW MICH CITY    2000   83 74  200/ 12/ 16   N/A     2

$$

INZ004-005-014>016-021>024-242200-
NORTH CENTRAL INDIANA

CITY           SKY/WX    TMP DP  RH WIND       PRES   REMARKS
ELKHART        CLOUDY    88  81  79 S21       29.92S HX 105
GOSHEN         MOSUNNY   90  74  59 SW13      29.91F HX  99
SOUTH BEND     MOSUNNY   88  77  69 S13       29.91F HX 100

$$

INZ006>009-017-018-025>027-242200-
NORTHEAST INDIANA

CITY           SKY/WX    TMP DP  RH WIND       PRES   REMARKS
ANGOLA *+        N/A     88  82  84 SW13      29.94S HX 108
FORT WAYNE     CLOUDY    90  74  59 SW12      29.96S HX  99

$$

INZ028-029-035-036-043>045-051>053-242200-
WEST CENTRAL INDIANA

CITY           SKY/WX    TMP DP  RH WIND       PRES   REMARKS
CRAWFORDSVL +  MOSUNNY   88  78  72 SW12      29.96S HX 102
LAFAYETTE      CLOUDY    89  77  67 SW9       29.93F HX 101
TERRE HAUTE    MOSUNNY   90  75  61 S13G21    29.95F HX 100

$$

INZ030>032-037>040-046>048-054>057-064-065-242200-
CENTRAL INDIANA

CITY           SKY/WX    TMP DP  RH WIND       PRES   REMARKS
COLUMBUS       PTSUNNY   90  79  70 SW12      29.98S HX 105
INDIANAPOLIS   PTSUNNY   91  75  59 SW14      29.97S HX 101
-EAGLE CREEK   SUNNY     93  74  53 SW10      29.96S HX 103
KOKOMO *+      CLOUDY    93  75  55 SW16      29.95F HX 104
SHELBYVILLE    MOSUNNY   92  75  57 SW12      29.96F HX 103

$$

INZ033-034-041-042-049-050-058-059-242200-
EAST CENTRAL INDIANA

CITY           SKY/WX    TMP DP  RH WIND       PRES   REMARKS
MUNCIE         CLOUDY    92  74  55 SW9G18    29.97S HX 101

$$

INZ060-061-067>069-081>083-085>088-242200-
SOUTHWEST INDIANA

CITY           SKY/WX    TMP DP  RH WIND       PRES   REMARKS
EVANSVILLE     MOSUNNY   92  75  57 SW9       29.96F HX 103
HUNTINGBURG *+ MOSUNNY   91  75  59 S8        29.97F HX 102

$$

INZ062-063-066-070>080-084-089>092-242200-
SOUTH CENTRAL AND SOUTHEAST INDIANA

CITY           SKY/WX    TMP DP  RH WIND       PRES   REMARKS
BLOOMINGTON    MOSUNNY   89  75  63 SW8       29.98F HX  99
MADISON *+     SUNNY     91  70  49 W6        30.01F HX  97

$$





USA.gov is the U.S. government's official web portal to all federal, state and local government web resources and services.